Time,TemperatureF,DewpointF,PressureIn,WindDirection,WindDirectionDegrees,WindSpeedMPH,WindSpeedGustMPH,Humidity,HourlyPrecipIn,Conditions,Clouds,dailyrainin,SoftwareType,DateUTC
2013-10-25 00:02:00,34.8,31.0,25.98,SSE,157,5.1,7.0,87,0.00,,,0.00,Rainwise IP-100,2013-10-25 06:02:00,
2013-10-25 00:07:00,34.8,31.0,25.98,SSE,157,3.3,7.0,87,0.00,,,0.00,Rainwise IP-100,2013-10-25 06:07:00,
2013-10-25 00:12:00,34.7,31.0,25.97,SE,135,2.8,5.0,87,0.00,,,0.00,Rainwise IP-100,2013-10-25 06:12:00,
2013-10-25 00:17:00,34.6,31.0,25.98,SSE,157,0.0,7.0,87,0.00,,,0.00,Rainwise IP-100,2013-10-25 06:17:00,
2013-10-25 00:22:00,34.4,32.0,25.97,SSE,157,2.1,6.0,88,0.00,,,0.00,Rainwise IP-100,2013-10-25 06:22:00,
2013-10-25 00:27:00,34.3,32.0,25.97,SSE,157,4.0,6.0,88,0.00,,,0.00,Rainwise IP-100,2013-10-25 06:27:00,
2013-10-25 00:32:00,34.3,32.0,25.97,SSE,157,3.5,7.0,88,0.00,,,0.00,Rainwise IP-100,2013-10-25 06:32:00,
2013-10-25 00:37:00,34.2,32.0,25.97,East,90,4.2,5.0,88,0.00,,,0.00,Rainwise IP-100,2013-10-25 06:37:00,
2013-10-25 00:42:00,33.9,32.0,25.97,SSE,157,4.0,5.0,89,0.00,,,0.00,Rainwise IP-100,2013-10-25 06:42:00,
2013-10-25 00:47:00,33.8,32.0,25.97,SE,135,0.0,5.0,89,0.00,,,0.00,Rainwise IP-100,2013-10-25 06:47:00,
2013-10-25 00:52:00,33.7,32.0,25.97,SSE,157,4.9,5.0,89,0.00,,,0.00,Rainwise IP-100,2013-10-25 06:52:00,
2013-10-25 00:57:00,33.6,32.0,25.97,SSE,157,2.8,6.0,89,0.00,,,0.00,Rainwise IP-100,2013-10-25 06:57:00,
2013-10-25 01:02:00,33.4,31.0,25.97,SSE,157,2.3,6.0,90,0.00,,,0.00,Rainwise IP-100,2013-10-25 07:02:00,
2013-10-25 01:07:00,33.3,31.0,25.97,SSE,157,2.3,6.0,90,0.00,,,0.00,Rainwise IP-100,2013-10-25 07:07:00,
2013-10-25 01:12:00,33.2,31.0,25.96,SSE,157,1.6,6.0,90,0.00,,,0.00,Rainwise IP-100,2013-10-25 07:12:00,
2013-10-25 01:17:00,33.1,31.0,25.96,SSE,157,6.1,7.0,90,0.00,,,0.00,Rainwise IP-100,2013-10-25 07:17:00,
2013-10-25 01:22:00,33.1,31.0,25.96,SSE,157,1.4,6.0,90,0.00,,,0.00,Rainwise IP-100,2013-10-25 07:22:00,
2013-10-25 01:27:00,33.0,31.0,25.96,SSE,157,4.7,6.0,91,0.00,,,0.00,Rainwise IP-100,2013-10-25 07:27:00,
2013-10-25 01:32:00,32.9,31.0,25.96,SE,135,3.5,6.0,91,0.00,,,0.00,Rainwise IP-100,2013-10-25 07:32:00,
2013-10-25 01:37:00,32.9,31.0,25.96,South,180,2.3,7.0,91,0.00,,,0.00,Rainwise IP-100,2013-10-25 07:37:00,
2013-10-25 01:42:00,32.9,31.0,25.96,SSE,157,2.8,7.0,91,0.00,,,0.00,Rainwise IP-100,2013-10-25 07:42:00,
2013-10-25 01:47:00,32.9,31.0,25.96,SSE,157,2.8,8.0,91,0.00,,,0.00,Rainwise IP-100,2013-10-25 07:47:00,
2013-10-25 01:52:00,32.9,31.0,25.96,SSE,157,2.1,7.0,92,0.00,,,0.00,Rainwise IP-100,2013-10-25 07:52:00,
2013-10-25 01:57:00,33.0,31.0,25.96,SSE,157,4.9,8.0,92,0.00,,,0.00,Rainwise IP-100,2013-10-25 07:57:00,
2013-10-25 02:02:00,33.0,31.0,25.96,SSE,157,1.9,8.0,92,0.00,,,0.00,Rainwise IP-100,2013-10-25 08:02:00,
2013-10-25 02:07:00,33.1,31.0,25.96,SE,135,3.5,6.0,92,0.00,,,0.00,Rainwise IP-100,2013-10-25 08:07:00,
2013-10-25 02:12:00,33.1,31.0,25.96,SSE,157,3.0,7.0,92,0.00,,,0.00,Rainwise IP-100,2013-10-25 08:12:00,
2013-10-25 02:17:00,33.1,31.0,25.95,SE,135,2.3,6.0,92,0.00,,,0.00,Rainwise IP-100,2013-10-25 08:17:00,
2013-10-25 02:22:00,33.1,31.0,25.96,ESE,112,2.1,6.0,92,0.00,,,0.00,Rainwise IP-100,2013-10-25 08:22:00,
2013-10-25 02:27:00,33.1,32.0,25.95,SSE,157,2.6,8.0,93,0.00,,,0.00,Rainwise IP-100,2013-10-25 08:27:00,
2013-10-25 02:32:00,33.1,32.0,25.95,SE,135,3.0,8.0,93,0.00,,,0.00,Rainwise IP-100,2013-10-25 08:32:00,
2013-10-25 02:37:00,33.1,32.0,25.95,SE,135,2.8,8.0,93,0.00,,,0.00,Rainwise IP-100,2013-10-25 08:37:00,
2013-10-25 02:42:00,33.1,32.0,25.95,SSE,157,5.4,8.0,93,0.00,,,0.00,Rainwise IP-100,2013-10-25 08:42:00,
2013-10-25 02:47:00,33.2,32.0,25.96,SSE,157,1.9,7.0,93,0.00,,,0.00,Rainwise IP-100,2013-10-25 08:47:00,
2013-10-25 02:52:00,33.2,32.0,25.95,South,180,6.3,8.0,93,0.00,,,0.00,Rainwise IP-100,2013-10-25 08:52:00,
2013-10-25 02:57:00,33.2,32.0,25.95,SSE,157,4.2,11.0,93,0.00,,,0.00,Rainwise IP-100,2013-10-25 08:57:00,
2013-10-25 03:02:00,33.2,32.0,25.95,SE,135,3.0,9.0,93,0.00,,,0.00,Rainwise IP-100,2013-10-25 09:02:00,
2013-10-25 03:07:00,33.1,32.0,25.95,SSE,157,4.9,8.0,93,0.00,,,0.00,Rainwise IP-100,2013-10-25 09:07:00,
2013-10-25 03:12:00,33.0,32.0,25.95,SSE,157,2.8,10.0,93,0.00,,,0.00,Rainwise IP-100,2013-10-25 09:12:00,
2013-10-25 03:17:00,32.9,32.0,25.95,SSE,157,3.3,9.0,93,0.00,,,0.00,Rainwise IP-100,2013-10-25 09:17:00,
2013-10-25 03:22:00,32.9,32.0,25.94,SE,135,5.8,8.0,93,0.00,,,0.00,Rainwise IP-100,2013-10-25 09:22:00,
2013-10-25 03:27:00,32.9,32.0,25.94,ESE,112,0.0,11.0,93,0.00,,,0.00,Rainwise IP-100,2013-10-25 09:27:00,
2013-10-25 03:32:00,32.9,32.0,25.95,SSE,157,5.8,9.0,94,0.00,,,0.00,Rainwise IP-100,2013-10-25 09:32:00,
2013-10-25 03:37:00,32.8,32.0,25.94,SSE,157,3.7,10.0,94,0.00,,,0.00,Rainwise IP-100,2013-10-25 09:37:00,
2013-10-25 03:42:00,32.8,32.0,25.94,SSE,157,7.2,9.0,94,0.00,,,0.00,Rainwise IP-100,2013-10-25 09:42:00,
2013-10-25 03:47:00,32.7,32.0,25.94,SSE,157,7.7,11.0,94,0.00,,,0.00,Rainwise IP-100,2013-10-25 09:47:00,
2013-10-25 03:52:00,32.6,32.0,25.94,SSE,157,5.8,9.0,94,0.00,,,0.00,Rainwise IP-100,2013-10-25 09:52:00,
2013-10-25 03:57:00,32.5,32.0,25.94,SSE,157,6.1,8.0,94,0.00,,,0.00,Rainwise IP-100,2013-10-25 09:57:00,
2013-10-25 04:02:00,32.4,31.0,25.94,SSE,157,10.7,10.7,94,0.00,,,0.00,Rainwise IP-100,2013-10-25 10:02:00,
2013-10-25 04:07:00,32.4,31.0,25.93,SSE,157,5.1,11.0,94,0.00,,,0.00,Rainwise IP-100,2013-10-25 10:07:00,
2013-10-25 04:12:00,32.4,31.0,25.93,SSE,157,5.6,12.0,94,0.00,,,0.00,Rainwise IP-100,2013-10-25 10:12:00,
2013-10-25 04:17:00,32.5,32.0,25.93,SSE,157,6.3,11.0,94,0.00,,,0.00,Rainwise IP-100,2013-10-25 10:17:00,
2013-10-25 04:22:00,32.6,32.0,25.93,SSE,157,7.7,14.0,94,0.00,,,0.00,Rainwise IP-100,2013-10-25 10:22:00,
2013-10-25 04:27:00,32.7,32.0,25.93,SSE,157,4.9,12.0,94,0.00,,,0.00,Rainwise IP-100,2013-10-25 10:27:00,
2013-10-25 04:32:00,32.8,32.0,25.93,South,180,5.8,11.0,94,0.00,,,0.00,Rainwise IP-100,2013-10-25 10:32:00,
2013-10-25 04:37:00,32.8,32.0,25.93,SSE,157,6.1,13.0,94,0.00,,,0.00,Rainwise IP-100,2013-10-25 10:37:00,
2013-10-25 04:42:00,32.8,32.0,25.93,ESE,112,5.1,13.0,94,0.00,,,0.00,Rainwise IP-100,2013-10-25 10:42:00,
2013-10-25 04:47:00,32.8,32.0,25.93,SE,135,5.6,11.0,94,0.00,,,0.00,Rainwise IP-100,2013-10-25 10:47:00,
2013-10-25 04:52:00,32.8,32.0,25.93,SSE,157,5.1,11.0,94,0.00,,,0.00,Rainwise IP-100,2013-10-25 10:52:00,
2013-10-25 04:57:00,32.7,32.0,25.92,SSE,157,3.7,9.0,94,0.00,,,0.00,Rainwise IP-100,2013-10-25 10:57:00,
2013-10-25 05:02:00,32.6,32.0,25.92,SSE,157,4.0,8.0,94,0.00,,,0.00,Rainwise IP-100,2013-10-25 11:02:00,
2013-10-25 05:07:00,32.5,32.0,25.93,ESE,112,6.3,8.0,94,0.00,,,0.00,Rainwise IP-100,2013-10-25 11:07:00,
2013-10-25 05:12:00,32.4,31.0,25.92,South,180,8.9,10.0,94,0.00,,,0.00,Rainwise IP-100,2013-10-25 11:12:00,
2013-10-25 05:17:00,32.5,32.0,25.92,SSE,157,5.4,10.0,94,0.00,,,0.00,Rainwise IP-100,2013-10-25 11:17:00,
2013-10-25 05:22:00,32.5,32.0,25.92,SSE,157,7.0,9.0,94,0.00,,,0.00,Rainwise IP-100,2013-10-25 11:22:00,
2013-10-25 05:27:00,32.5,32.0,25.92,SSE,157,5.1,8.0,94,0.00,,,0.00,Rainwise IP-100,2013-10-25 11:27:00,
2013-10-25 05:32:00,32.5,32.0,25.92,SSE,157,4.4,13.0,94,0.00,,,0.00,Rainwise IP-100,2013-10-25 11:32:00,
2013-10-25 05:37:00,32.5,32.0,25.92,SSE,157,6.5,11.0,94,0.00,,,0.00,Rainwise IP-100,2013-10-25 11:37:00,
2013-10-25 05:42:00,32.5,32.0,25.92,SSE,157,7.9,9.0,94,0.00,,,0.00,Rainwise IP-100,2013-10-25 11:42:00,
2013-10-25 05:47:00,32.5,32.0,25.92,SSE,157,8.2,10.0,94,0.00,,,0.00,Rainwise IP-100,2013-10-25 11:47:00,
2013-10-25 05:52:00,32.5,32.0,25.92,SSE,157,3.5,9.0,95,0.00,,,0.00,Rainwise IP-100,2013-10-25 11:52:00,
2013-10-25 05:57:00,32.5,32.0,25.92,SSE,157,6.5,10.0,95,0.00,,,0.00,Rainwise IP-100,2013-10-25 11:57:00,
2013-10-25 06:02:00,32.5,32.0,25.92,SSE,157,4.2,11.0,95,0.00,,,0.00,Rainwise IP-100,2013-10-25 12:02:00,
2013-10-25 06:07:00,32.5,32.0,25.92,SSE,157,5.8,11.0,95,0.00,,,0.00,Rainwise IP-100,2013-10-25 12:07:00,
2013-10-25 06:12:00,32.5,32.0,25.91,SSE,157,4.7,10.0,94,0.00,,,0.00,Rainwise IP-100,2013-10-25 12:12:00,
2013-10-25 06:17:00,32.5,32.0,25.91,SSE,157,9.1,12.0,94,0.00,,,0.00,Rainwise IP-100,2013-10-25 12:17:00,
2013-10-25 06:22:00,32.5,32.0,25.91,SSE,157,10.0,12.0,94,0.00,,,0.00,Rainwise IP-100,2013-10-25 12:22:00,
2013-10-25 06:27:00,32.4,31.0,25.91,SSE,157,7.2,10.0,95,0.00,,,0.00,Rainwise IP-100,2013-10-25 12:27:00,
2013-10-25 06:32:00,32.2,31.0,25.91,SE,135,4.9,10.0,95,0.00,,,0.00,Rainwise IP-100,2013-10-25 12:32:00,
2013-10-25 06:37:00,32.1,31.0,25.91,South,180,5.1,10.0,95,0.00,,,0.00,Rainwise IP-100,2013-10-25 12:37:00,
2013-10-25 06:42:00,32.1,31.0,25.90,SSE,157,7.2,9.0,95,0.00,,,0.00,Rainwise IP-100,2013-10-25 12:42:00,
2013-10-25 06:47:00,32.0,31.0,25.91,South,180,5.8,8.0,95,0.00,,,0.00,Rainwise IP-100,2013-10-25 12:47:00,
2013-10-25 06:52:00,32.0,31.0,25.90,SSE,157,5.6,8.0,95,0.00,,,0.00,Rainwise IP-100,2013-10-25 12:52:00,
2013-10-25 06:57:00,31.9,31.0,25.90,SSE,157,3.5,7.0,95,0.00,,,0.00,Rainwise IP-100,2013-10-25 12:57:00,
2013-10-25 07:02:00,31.9,31.0,25.90,SSE,157,8.9,8.9,95,0.00,,,0.00,Rainwise IP-100,2013-10-25 13:02:00,
2013-10-25 07:07:00,31.8,31.0,25.90,SSE,157,7.2,8.0,95,0.00,,,0.00,Rainwise IP-100,2013-10-25 13:07:00,
2013-10-25 07:12:00,31.8,31.0,25.90,SSE,157,7.5,8.0,95,0.00,,,0.00,Rainwise IP-100,2013-10-25 13:12:00,
2013-10-25 07:17:00,31.7,31.0,25.90,SSE,157,4.9,9.0,95,0.00,,,0.00,Rainwise IP-100,2013-10-25 13:17:00,
2013-10-25 07:22:00,31.8,31.0,25.90,SSE,157,4.9,7.0,95,0.00,,,0.00,Rainwise IP-100,2013-10-25 13:22:00,
2013-10-25 07:27:00,31.7,31.0,25.90,SSE,157,5.4,7.0,95,0.00,,,0.00,Rainwise IP-100,2013-10-25 13:27:00,
2013-10-25 07:32:00,31.7,31.0,25.91,SSE,157,3.7,7.0,95,0.00,,,0.00,Rainwise IP-100,2013-10-25 13:32:00,
2013-10-25 07:37:00,31.8,31.0,25.91,SSE,157,2.8,6.0,96,0.00,,,0.00,Rainwise IP-100,2013-10-25 13:37:00,
2013-10-25 07:42:00,31.9,31.0,25.90,SSE,157,3.3,7.0,95,0.00,,,0.00,Rainwise IP-100,2013-10-25 13:42:00,
2013-10-25 07:47:00,31.9,31.0,25.91,SSE,157,3.3,4.0,95,0.00,,,0.00,Rainwise IP-100,2013-10-25 13:47:00,
2013-10-25 07:52:00,31.9,31.0,25.91,South,180,4.4,5.0,95,0.00,,,0.00,Rainwise IP-100,2013-10-25 13:52:00,
2013-10-25 07:57:00,32.0,31.0,25.91,SSE,157,2.1,6.0,95,0.00,,,0.00,Rainwise IP-100,2013-10-25 13:57:00,
2013-10-25 08:02:00,32.1,31.0,25.91,SSE,157,5.4,5.4,95,0.00,,,0.00,Rainwise IP-100,2013-10-25 14:02:00,
2013-10-25 08:07:00,32.3,31.0,25.91,South,180,5.4,6.0,95,0.00,,,0.00,Rainwise IP-100,2013-10-25 14:07:00,
2013-10-25 08:12:00,32.5,32.0,25.91,South,180,1.2,5.0,95,0.00,,,0.00,Rainwise IP-100,2013-10-25 14:12:00,
2013-10-25 08:17:00,32.8,32.0,25.91,SSE,157,4.7,6.0,95,0.00,,,0.00,Rainwise IP-100,2013-10-25 14:17:00,
2013-10-25 08:22:00,33.0,32.0,25.92,South,180,5.1,8.0,94,0.00,,,0.00,Rainwise IP-100,2013-10-25 14:22:00,
2013-10-25 08:27:00,33.2,32.0,25.91,South,180,6.1,9.0,94,0.00,,,0.00,Rainwise IP-100,2013-10-25 14:27:00,
2013-10-25 08:32:00,33.4,32.0,25.92,WSW,247,4.0,10.0,94,0.00,,,0.00,Rainwise IP-100,2013-10-25 14:32:00,
2013-10-25 08:37:00,33.7,33.0,25.92,SSW,202,4.0,10.0,94,0.00,,,0.00,Rainwise IP-100,2013-10-25 14:37:00,
2013-10-25 08:42:00,34.1,33.0,25.92,SSE,157,4.4,8.0,94,0.00,,,0.00,Rainwise IP-100,2013-10-25 14:42:00,
2013-10-25 08:47:00,34.4,33.0,25.91,SSW,202,5.1,6.0,93,0.00,,,0.00,Rainwise IP-100,2013-10-25 14:47:00,
2013-10-25 08:52:00,34.5,33.0,25.91,SSW,202,3.3,7.0,93,0.00,,,0.00,Rainwise IP-100,2013-10-25 14:52:00,
2013-10-25 08:57:00,34.9,32.0,25.91,SSW,202,4.2,6.0,92,0.00,,,0.00,Rainwise IP-100,2013-10-25 14:57:00,
2013-10-25 09:02:00,35.4,32.0,25.91,South,180,5.4,6.0,92,0.00,,,0.00,Rainwise IP-100,2013-10-25 15:02:00,
2013-10-25 09:07:00,35.8,33.0,25.91,SSW,202,5.1,6.0,91,0.00,,,0.00,Rainwise IP-100,2013-10-25 15:07:00,
2013-10-25 09:12:00,36.2,33.0,25.91,SSW,202,6.3,7.0,91,0.00,,,0.00,Rainwise IP-100,2013-10-25 15:12:00,
2013-10-25 09:17:00,36.5,35.0,25.91,SSW,202,1.2,6.0,90,0.00,,,0.00,Rainwise IP-100,2013-10-25 15:17:00,
2013-10-25 09:22:00,36.9,35.0,25.91,South,180,2.3,5.0,89,0.00,,,0.00,Rainwise IP-100,2013-10-25 15:22:00,
2013-10-25 09:27:00,37.4,35.0,25.91,South,180,3.7,5.0,89,0.00,,,0.00,Rainwise IP-100,2013-10-25 15:27:00,
2013-10-25 09:32:00,37.9,35.0,25.91,WSW,247,6.1,6.1,88,0.00,,,0.00,Rainwise IP-100,2013-10-25 15:32:00,
2013-10-25 09:37:00,38.1,35.0,25.92,SSE,157,6.3,7.0,87,0.00,,,0.00,Rainwise IP-100,2013-10-25 15:37:00,
2013-10-25 09:42:00,38.3,35.0,25.91,SSW,202,4.4,7.0,87,0.00,,,0.00,Rainwise IP-100,2013-10-25 15:42:00,
2013-10-25 09:47:00,38.7,36.0,25.91,WSW,247,3.0,8.0,86,0.00,,,0.00,Rainwise IP-100,2013-10-25 15:47:00,
2013-10-25 09:52:00,38.8,36.0,25.91,SSW,202,0.0,8.0,86,0.00,,,0.00,Rainwise IP-100,2013-10-25 15:52:00,
2013-10-25 09:57:00,39.2,35.0,25.91,WSW,247,7.0,7.0,85,0.00,,,0.00,Rainwise IP-100,2013-10-25 15:57:00,
2013-10-25 10:02:00,39.7,36.0,25.91,South,180,2.1,7.0,84,0.00,,,0.00,Rainwise IP-100,2013-10-25 16:02:00,
2013-10-25 10:07:00,40.3,36.0,25.91,WSW,247,5.4,8.0,83,0.00,,,0.00,Rainwise IP-100,2013-10-25 16:07:00,
2013-10-25 10:12:00,40.8,36.0,25.90,South,180,3.7,8.0,82,0.00,,,0.00,Rainwise IP-100,2013-10-25 16:12:00,
2013-10-25 10:17:00,41.3,36.0,25.90,SSW,202,2.8,7.0,81,0.00,,,0.00,Rainwise IP-100,2013-10-25 16:17:00,
2013-10-25 10:22:00,41.9,37.0,25.90,SSE,157,4.7,7.0,80,0.00,,,0.00,Rainwise IP-100,2013-10-25 16:22:00,
2013-10-25 10:27:00,42.0,36.0,25.90,WSW,247,1.4,8.0,79,0.00,,,0.00,Rainwise IP-100,2013-10-25 16:27:00,
2013-10-25 10:32:00,42.2,36.0,25.90,SSW,202,4.0,5.0,78,0.00,,,0.00,Rainwise IP-100,2013-10-25 16:32:00,
2013-10-25 10:37:00,43.2,37.0,25.89,WSW,247,2.6,5.0,78,0.00,,,0.00,Rainwise IP-100,2013-10-25 16:37:00,
2013-10-25 10:42:00,44.1,37.0,25.89,South,180,0.0,5.0,76,0.00,,,0.00,Rainwise IP-100,2013-10-25 16:42:00,
2013-10-25 10:47:00,44.7,37.0,25.89,SSW,202,3.7,4.0,74,0.00,,,0.00,Rainwise IP-100,2013-10-25 16:47:00,
2013-10-25 10:52:00,45.1,37.0,25.89,South,180,2.3,6.0,73,0.00,,,0.00,Rainwise IP-100,2013-10-25 16:52:00,
2013-10-25 10:57:00,45.5,37.0,25.88,SSW,202,4.0,6.0,72,0.00,,,0.00,Rainwise IP-100,2013-10-25 16:57:00,
2013-10-25 11:02:00,45.9,37.0,25.88,South,180,3.3,7.0,71,0.00,,,0.00,Rainwise IP-100,2013-10-25 17:02:00,
2013-10-25 11:07:00,46.4,37.0,25.88,SSE,157,0.0,6.0,70,0.00,,,0.00,Rainwise IP-100,2013-10-25 17:07:00,
2013-10-25 11:12:00,47.1,37.0,25.88,WSW,247,3.7,6.0,69,0.00,,,0.00,Rainwise IP-100,2013-10-25 17:12:00,
2013-10-25 11:17:00,47.7,37.0,25.88,South,180,2.8,5.0,67,0.00,,,0.00,Rainwise IP-100,2013-10-25 17:17:00,
2013-10-25 11:22:00,48.3,37.0,25.88,SSE,157,5.4,6.0,66,0.00,,,0.00,Rainwise IP-100,2013-10-25 17:22:00,
2013-10-25 11:27:00,48.8,38.0,25.88,South,180,7.0,9.0,65,0.00,,,0.00,Rainwise IP-100,2013-10-25 17:27:00,
2013-10-25 11:32:00,49.1,37.0,25.88,SW,225,4.9,8.0,64,0.00,,,0.00,Rainwise IP-100,2013-10-25 17:32:00,
2013-10-25 11:37:00,49.7,38.0,25.88,WSW,247,2.6,7.0,63,0.00,,,0.00,Rainwise IP-100,2013-10-25 17:37:00,
2013-10-25 11:42:00,50.3,37.0,25.88,SW,225,7.9,9.0,62,0.00,,,0.00,Rainwise IP-100,2013-10-25 17:42:00,
2013-10-25 11:47:00,50.7,38.0,25.87,SSE,157,4.7,10.0,61,0.00,,,0.00,Rainwise IP-100,2013-10-25 17:47:00,
2013-10-25 11:52:00,51.0,38.0,25.87,SSW,202,4.9,8.0,60,0.00,,,0.00,Rainwise IP-100,2013-10-25 17:52:00,
2013-10-25 11:57:00,51.3,37.0,25.86,SSW,202,6.8,9.0,59,0.00,,,0.00,Rainwise IP-100,2013-10-25 17:57:00,
2013-10-25 12:02:00,51.2,37.0,25.86,South,180,5.8,9.0,59,0.00,,,0.00,Rainwise IP-100,2013-10-25 18:02:00,
2013-10-25 12:07:00,51.7,38.0,25.87,SW,225,5.1,9.0,58,0.00,,,0.00,Rainwise IP-100,2013-10-25 18:07:00,
2013-10-25 12:12:00,52.4,38.0,25.86,SSW,202,7.0,11.0,58,0.00,,,0.00,Rainwise IP-100,2013-10-25 18:12:00,
2013-10-25 12:17:00,52.9,37.0,25.86,SW,225,2.6,9.0,56,0.00,,,0.00,Rainwise IP-100,2013-10-25 18:17:00,
2013-10-25 12:22:00,53.9,38.0,25.85,SSE,157,1.9,10.0,55,0.00,,,0.00,Rainwise IP-100,2013-10-25 18:22:00,
2013-10-25 12:27:00,55.0,39.0,25.85,WSW,247,5.6,9.0,54,0.00,,,0.00,Rainwise IP-100,2013-10-25 18:27:00,
2013-10-25 12:32:00,55.4,38.0,25.84,SSW,202,5.1,14.0,52,0.00,,,0.00,Rainwise IP-100,2013-10-25 18:32:00,
2013-10-25 12:37:00,55.9,38.0,25.85,SSW,202,2.3,12.0,51,0.00,,,0.00,Rainwise IP-100,2013-10-25 18:37:00,
2013-10-25 12:42:00,56.7,38.0,25.84,WSW,247,4.7,11.0,50,0.00,,,0.00,Rainwise IP-100,2013-10-25 18:42:00,
2013-10-25 12:47:00,57.1,38.0,25.84,WSW,247,6.1,9.0,49,0.00,,,0.00,Rainwise IP-100,2013-10-25 18:47:00,
2013-10-25 12:52:00,57.4,38.0,25.84,WSW,247,5.1,8.0,48,0.00,,,0.00,Rainwise IP-100,2013-10-25 18:52:00,
2013-10-25 12:57:00,57.7,38.0,25.84,SSW,202,2.1,11.0,48,0.00,,,0.00,Rainwise IP-100,2013-10-25 18:57:00,
2013-10-25 13:02:00,57.6,38.0,25.84,SSW,202,6.1,10.0,47,0.00,,,0.00,Rainwise IP-100,2013-10-25 19:02:00,
2013-10-25 13:07:00,57.3,37.0,25.83,WSW,247,9.6,13.0,47,0.00,,,0.00,Rainwise IP-100,2013-10-25 19:07:00,
2013-10-25 13:12:00,57.2,38.0,25.83,WSW,247,6.1,10.0,48,0.00,,,0.00,Rainwise IP-100,2013-10-25 19:12:00,
2013-10-25 13:17:00,57.4,38.0,25.83,SSW,202,5.1,10.0,48,0.00,,,0.00,Rainwise IP-100,2013-10-25 19:17:00,
2013-10-25 13:22:00,58.1,38.0,25.82,WSW,247,4.9,8.0,47,0.00,,,0.00,Rainwise IP-100,2013-10-25 19:22:00,
2013-10-25 13:27:00,58.9,38.0,25.82,SSW,202,4.9,9.0,46,0.00,,,0.00,Rainwise IP-100,2013-10-25 19:27:00,
2013-10-25 13:32:00,59.6,38.0,25.82,WSW,247,9.1,9.1,45,0.00,,,0.00,Rainwise IP-100,2013-10-25 19:32:00,
2013-10-25 13:37:00,59.9,38.0,25.81,SSW,202,8.9,12.0,45,0.00,,,0.00,Rainwise IP-100,2013-10-25 19:37:00,
2013-10-25 13:42:00,59.7,38.0,25.81,South,180,4.7,9.0,45,0.00,,,0.00,Rainwise IP-100,2013-10-25 19:42:00,
2013-10-25 13:47:00,59.9,38.0,25.81,SW,225,5.1,8.0,44,0.00,,,0.00,Rainwise IP-100,2013-10-25 19:47:00,
2013-10-25 13:52:00,60.3,38.0,25.81,WSW,247,5.4,12.0,44,0.00,,,0.00,Rainwise IP-100,2013-10-25 19:52:00,
2013-10-25 13:57:00,60.5,38.0,25.81,WSW,247,2.3,11.0,43,0.00,,,0.00,Rainwise IP-100,2013-10-25 19:57:00,
2013-10-25 14:02:00,60.8,38.0,25.80,SSW,202,6.8,10.0,43,0.00,,,0.00,Rainwise IP-100,2013-10-25 20:02:00,
2013-10-25 14:07:00,61.1,38.0,25.80,WSW,247,7.7,9.0,43,0.00,,,0.00,Rainwise IP-100,2013-10-25 20:07:00,
2013-10-25 14:12:00,61.3,38.0,25.80,WSW,247,7.5,10.0,42,0.00,,,0.00,Rainwise IP-100,2013-10-25 20:12:00,
2013-10-25 14:17:00,61.6,38.0,25.80,WSW,247,3.7,10.0,42,0.00,,,0.00,Rainwise IP-100,2013-10-25 20:17:00,
2013-10-25 14:22:00,62.3,38.0,25.80,WSW,247,3.5,7.0,41,0.00,,,0.00,Rainwise IP-100,2013-10-25 20:22:00,
2013-10-25 14:27:00,62.4,38.0,25.80,SSW,202,1.9,6.0,40,0.00,,,0.00,Rainwise IP-100,2013-10-25 20:27:00,
2013-10-25 14:32:00,62.4,38.0,25.80,SSW,202,4.2,6.0,40,0.00,,,0.00,Rainwise IP-100,2013-10-25 20:32:00,
2013-10-25 14:37:00,62.7,38.0,25.80,West,270,0.0,8.0,40,0.00,,,0.00,Rainwise IP-100,2013-10-25 20:37:00,
2013-10-25 14:42:00,63.1,38.0,25.79,WNW,292,2.8,6.0,39,0.00,,,0.00,Rainwise IP-100,2013-10-25 20:42:00,
2013-10-25 14:47:00,63.4,38.0,25.79,SSW,202,1.6,8.0,39,0.00,,,0.00,Rainwise IP-100,2013-10-25 20:47:00,
2013-10-25 14:52:00,63.3,38.0,25.79,SSW,202,2.3,6.0,39,0.00,,,0.00,Rainwise IP-100,2013-10-25 20:52:00,
2013-10-25 14:57:00,63.4,38.0,25.79,South,180,2.1,4.0,39,0.00,,,0.00,Rainwise IP-100,2013-10-25 20:57:00,
2013-10-25 15:02:00,63.7,38.0,25.79,SSW,202,2.8,3.0,39,0.00,,,0.00,Rainwise IP-100,2013-10-25 21:02:00,
2013-10-25 15:07:00,63.8,38.0,25.79,South,180,1.9,4.0,39,0.00,,,0.00,Rainwise IP-100,2013-10-25 21:07:00,
2013-10-25 15:12:00,63.8,37.0,25.79,South,180,0.0,3.0,38,0.00,,,0.00,Rainwise IP-100,2013-10-25 21:12:00,
2013-10-25 15:17:00,64.5,38.0,25.79,South,180,0.0,1.0,38,0.00,,,0.00,Rainwise IP-100,2013-10-25 21:17:00,
2013-10-25 15:22:00,64.8,38.0,25.79,South,180,7.0,7.0,37,0.00,,,0.00,Rainwise IP-100,2013-10-25 21:22:00,
2013-10-25 15:27:00,64.0,38.0,25.79,SSE,157,7.2,10.0,38,0.00,,,0.00,Rainwise IP-100,2013-10-25 21:27:00,
2013-10-25 15:32:00,62.9,38.0,25.79,SSE,157,6.8,9.0,39,0.00,,,0.00,Rainwise IP-100,2013-10-25 21:32:00,
2013-10-25 15:37:00,62.5,38.0,25.79,SSE,157,4.2,10.0,40,0.00,,,0.00,Rainwise IP-100,2013-10-25 21:37:00,
2013-10-25 15:42:00,62.4,38.0,25.79,SSE,157,8.4,11.0,40,0.00,,,0.00,Rainwise IP-100,2013-10-25 21:42:00,
2013-10-25 15:47:00,62.2,38.0,25.79,SSW,202,7.0,9.0,41,0.00,,,0.00,Rainwise IP-100,2013-10-25 21:47:00,
2013-10-25 15:52:00,61.9,38.0,25.79,SSE,157,4.9,10.0,41,0.00,,,0.00,Rainwise IP-100,2013-10-25 21:52:00,
2013-10-25 15:57:00,61.7,38.0,25.79,SSE,157,5.4,10.0,41,0.00,,,0.00,Rainwise IP-100,2013-10-25 21:57:00,
2013-10-25 16:02:00,61.6,38.0,25.79,SSE,157,4.7,7.0,41,0.00,,,0.00,Rainwise IP-100,2013-10-25 22:02:00,
2013-10-25 16:07:00,61.5,38.0,25.79,SSE,157,4.9,7.0,42,0.00,,,0.00,Rainwise IP-100,2013-10-25 22:07:00,
2013-10-25 16:12:00,61.3,38.0,25.79,SSE,157,3.0,9.0,42,0.00,,,0.00,Rainwise IP-100,2013-10-25 22:12:00,
2013-10-25 16:17:00,61.2,38.0,25.79,SSE,157,7.5,9.0,42,0.00,,,0.00,Rainwise IP-100,2013-10-25 22:17:00,
2013-10-25 16:22:00,61.2,38.0,25.79,ESE,112,6.5,10.0,42,0.00,,,0.00,Rainwise IP-100,2013-10-25 22:22:00,
2013-10-25 16:27:00,61.0,38.0,25.79,SSE,157,4.0,7.0,42,0.00,,,0.00,Rainwise IP-100,2013-10-25 22:27:00,
2013-10-25 16:32:00,60.8,37.0,25.79,SSE,157,4.2,7.0,42,0.00,,,0.00,Rainwise IP-100,2013-10-25 22:32:00,
2013-10-25 16:37:00,60.6,38.0,25.79,SSE,157,6.3,7.0,43,0.00,,,0.00,Rainwise IP-100,2013-10-25 22:37:00,
2013-10-25 16:42:00,60.4,38.0,25.79,SSE,157,4.9,7.0,43,0.00,,,0.00,Rainwise IP-100,2013-10-25 22:42:00,
2013-10-25 16:47:00,60.4,38.0,25.79,SSE,157,3.3,6.0,43,0.00,,,0.00,Rainwise IP-100,2013-10-25 22:47:00,
2013-10-25 16:52:00,60.2,37.0,25.79,SSE,157,2.8,6.0,43,0.00,,,0.00,Rainwise IP-100,2013-10-25 22:52:00,
2013-10-25 16:57:00,60.1,37.0,25.79,SSE,157,1.9,5.0,43,0.00,,,0.00,Rainwise IP-100,2013-10-25 22:57:00,
2013-10-25 17:02:00,59.9,38.0,25.79,SSE,157,2.1,6.0,44,0.00,,,0.00,Rainwise IP-100,2013-10-25 23:02:00,
2013-10-25 17:07:00,59.6,37.0,25.79,SE,135,1.4,5.0,44,0.00,,,0.00,Rainwise IP-100,2013-10-25 23:07:00,
2013-10-25 17:12:00,59.3,38.0,25.79,SE,135,2.1,4.0,45,0.00,,,0.00,Rainwise IP-100,2013-10-25 23:12:00,
2013-10-25 17:17:00,59.1,38.0,25.79,SSE,157,2.3,4.0,45,0.00,,,0.00,Rainwise IP-100,2013-10-25 23:17:00,
2013-10-25 17:22:00,58.8,38.0,25.79,SSE,157,2.1,4.0,46,0.00,,,0.00,Rainwise IP-100,2013-10-25 23:22:00,
2013-10-25 17:27:00,58.6,38.0,25.79,SSE,157,1.2,3.0,46,0.00,,,0.00,Rainwise IP-100,2013-10-25 23:27:00,
2013-10-25 17:32:00,58.3,38.0,25.79,SSE,157,1.6,3.0,46,0.00,,,0.00,Rainwise IP-100,2013-10-25 23:32:00,
2013-10-25 17:37:00,58.2,38.0,25.79,SE,135,1.6,2.0,47,0.00,,,0.00,Rainwise IP-100,2013-10-25 23:37:00,
2013-10-25 17:42:00,58.0,38.0,25.79,SE,135,1.4,1.4,47,0.00,,,0.00,Rainwise IP-100,2013-10-25 23:42:00,
2013-10-25 17:47:00,57.9,38.0,25.79,SE,135,0.0,1.0,47,0.00,,,0.00,Rainwise IP-100,2013-10-25 23:47:00,
2013-10-25 17:52:00,57.8,38.0,25.79,SE,135,0.0,1.0,48,0.00,,,0.00,Rainwise IP-100,2013-10-25 23:52:00,
2013-10-25 17:57:00,57.7,38.0,25.79,SE,135,0.0,1.0,48,0.00,,,0.00,Rainwise IP-100,2013-10-25 23:57:00,
2013-10-25 18:02:00,57.7,38.0,25.79,SE,135,0.0,1.0,48,0.00,,,0.00,Rainwise IP-100,2013-10-26 00:02:00,
2013-10-25 18:07:00,57.7,38.0,25.79,SE,135,0.0,1.0,48,0.00,,,0.00,Rainwise IP-100,2013-10-26 00:07:00,
2013-10-25 18:12:00,57.6,38.0,25.79,SE,135,0.0,1.0,48,0.00,,,0.00,Rainwise IP-100,2013-10-26 00:12:00,
2013-10-25 18:17:00,57.5,38.0,25.79,SE,135,0.0,0.0,48,0.00,,,0.00,Rainwise IP-100,2013-10-26 00:17:00,
2013-10-25 18:22:00,57.5,38.0,25.79,SE,135,0.0,0.0,48,0.00,,,0.00,Rainwise IP-100,2013-10-26 00:22:00,
2013-10-25 18:27:00,57.5,38.0,25.79,SE,135,0.0,1.0,48,0.00,,,0.00,Rainwise IP-100,2013-10-26 00:27:00,
2013-10-25 18:32:00,57.4,38.0,25.79,SE,135,0.0,1.0,48,0.00,,,0.00,Rainwise IP-100,2013-10-26 00:32:00,
2013-10-25 18:37:00,57.4,38.0,25.79,SE,135,0.0,1.0,48,0.00,,,0.00,Rainwise IP-100,2013-10-26 00:37:00,
2013-10-25 18:42:00,57.1,38.0,25.79,SE,135,0.0,1.0,48,0.00,,,0.00,Rainwise IP-100,2013-10-26 00:42:00,
2013-10-25 18:47:00,57.1,38.0,25.79,SE,135,0.0,2.0,49,0.00,,,0.00,Rainwise IP-100,2013-10-26 00:47:00,
2013-10-25 18:52:00,57.1,38.0,25.80,SE,135,0.0,1.0,49,0.00,,,0.00,Rainwise IP-100,2013-10-26 00:52:00,
2013-10-25 18:57:00,56.9,38.0,25.80,SE,135,0.0,0.0,49,0.00,,,0.00,Rainwise IP-100,2013-10-26 00:57:00,
2013-10-25 19:02:00,56.4,38.0,25.80,NNW,337,3.3,3.3,50,0.00,,,0.00,Rainwise IP-100,2013-10-26 01:02:00,
2013-10-25 19:07:00,55.8,38.0,25.80,NNW,337,1.4,3.0,50,0.00,,,0.00,Rainwise IP-100,2013-10-26 01:07:00,
2013-10-25 19:12:00,55.5,38.0,25.80,NNW,337,0.0,2.0,51,0.00,,,0.00,Rainwise IP-100,2013-10-26 01:12:00,
2013-10-25 19:17:00,55.8,38.0,25.80,NNW,337,2.6,2.6,51,0.00,,,0.00,Rainwise IP-100,2013-10-26 01:17:00,
2013-10-25 19:22:00,55.9,38.0,25.80,NNW,337,2.6,4.0,51,0.00,,,0.00,Rainwise IP-100,2013-10-26 01:22:00,
2013-10-25 19:27:00,55.2,37.0,25.81,NNW,337,4.2,5.0,51,0.00,,,0.00,Rainwise IP-100,2013-10-26 01:27:00,
2013-10-25 19:32:00,54.2,36.0,25.81,NNW,337,1.4,5.0,51,0.00,,,0.00,Rainwise IP-100,2013-10-26 01:32:00,
2013-10-25 19:37:00,53.5,36.0,25.81,NNW,337,3.5,3.5,52,0.00,,,0.00,Rainwise IP-100,2013-10-26 01:37:00,
2013-10-25 19:42:00,53.3,36.0,25.81,NNW,337,2.6,3.0,53,0.00,,,0.00,Rainwise IP-100,2013-10-26 01:42:00,
2013-10-25 19:47:00,53.7,37.0,25.81,NNW,337,0.0,2.0,54,0.00,,,0.00,Rainwise IP-100,2013-10-26 01:47:00,
2013-10-25 19:52:00,54.2,38.0,25.81,NNW,337,0.0,0.0,54,0.00,,,0.00,Rainwise IP-100,2013-10-26 01:52:00,
2013-10-25 19:57:00,54.8,38.0,25.81,NNW,337,0.0,0.0,53,0.00,,,0.00,Rainwise IP-100,2013-10-26 01:57:00,
2013-10-25 20:02:00,55.2,38.0,25.81,NNW,337,0.0,0.0,53,0.00,,,0.00,Rainwise IP-100,2013-10-26 02:02:00,
2013-10-25 20:07:00,55.2,38.0,25.81,NNW,337,1.9,2.0,52,0.00,,,0.00,Rainwise IP-100,2013-10-26 02:07:00,
2013-10-25 20:12:00,54.9,38.0,25.81,NNW,337,2.6,3.0,52,0.00,,,0.00,Rainwise IP-100,2013-10-26 02:12:00,
2013-10-25 20:17:00,54.2,37.0,25.81,NNW,337,3.7,4.0,53,0.00,,,0.00,Rainwise IP-100,2013-10-26 02:17:00,
2013-10-25 20:22:00,53.8,37.0,25.81,NNW,337,2.6,4.0,54,0.00,,,0.00,Rainwise IP-100,2013-10-26 02:22:00,
2013-10-25 20:27:00,53.6,37.0,25.81,NNW,337,2.8,2.8,54,0.00,,,0.00,Rainwise IP-100,2013-10-26 02:27:00,
2013-10-25 20:32:00,53.3,37.0,25.82,NW,315,5.6,5.6,54,0.00,,,0.00,Rainwise IP-100,2013-10-26 02:32:00,
2013-10-25 20:37:00,53.0,37.0,25.82,NW,315,5.4,7.0,55,0.00,,,0.00,Rainwise IP-100,2013-10-26 02:37:00,
2013-10-25 20:42:00,53.3,37.0,25.82,WNW,292,4.2,9.0,56,0.00,,,0.00,Rainwise IP-100,2013-10-26 02:42:00,
2013-10-25 20:47:00,53.7,38.0,25.82,WNW,292,4.7,6.0,56,0.00,,,0.00,Rainwise IP-100,2013-10-26 02:47:00,
2013-10-25 20:52:00,53.9,38.0,25.82,NW,315,4.7,6.0,55,0.00,,,0.00,Rainwise IP-100,2013-10-26 02:52:00,
2013-10-25 20:57:00,53.8,38.0,25.82,NNW,337,4.2,6.0,55,0.00,,,0.00,Rainwise IP-100,2013-10-26 02:57:00,
2013-10-25 21:02:00,53.6,38.0,25.82,NNW,337,3.0,5.0,55,0.00,,,0.00,Rainwise IP-100,2013-10-26 03:02:00,
2013-10-25 21:07:00,53.4,38.0,25.82,NNW,337,0.0,4.0,56,0.00,,,0.00,Rainwise IP-100,2013-10-26 03:07:00,
2013-10-25 21:12:00,53.0,37.0,25.82,NNW,337,1.9,3.0,56,0.00,,,0.00,Rainwise IP-100,2013-10-26 03:12:00,
2013-10-25 21:17:00,52.8,38.0,25.82,NNW,337,2.3,3.0,57,0.00,,,0.00,Rainwise IP-100,2013-10-26 03:17:00,
2013-10-25 21:22:00,52.7,38.0,25.82,NNW,337,0.0,2.0,58,0.00,,,0.00,Rainwise IP-100,2013-10-26 03:22:00,
2013-10-25 21:27:00,52.6,38.0,25.82,NNW,337,0.0,1.0,58,0.00,,,0.00,Rainwise IP-100,2013-10-26 03:27:00,
2013-10-25 21:32:00,52.3,38.0,25.82,NNW,337,2.6,3.0,58,0.00,,,0.00,Rainwise IP-100,2013-10-26 03:32:00,
2013-10-25 21:37:00,52.4,38.0,25.82,NNW,337,5.1,5.1,58,0.00,,,0.00,Rainwise IP-100,2013-10-26 03:37:00,
2013-10-25 21:42:00,53.2,38.0,25.82,NNW,337,3.3,5.0,57,0.00,,,0.00,Rainwise IP-100,2013-10-26 03:42:00,
2013-10-25 21:47:00,53.8,38.0,25.82,WNW,292,4.2,5.0,56,0.00,,,0.00,Rainwise IP-100,2013-10-26 03:47:00,
2013-10-25 21:52:00,53.2,37.0,25.82,WNW,292,4.7,6.0,56,0.00,,,0.00,Rainwise IP-100,2013-10-26 03:52:00,
2013-10-25 21:57:00,52.2,38.0,25.82,WNW,292,5.6,7.0,58,0.00,,,0.00,Rainwise IP-100,2013-10-26 03:57:00,
2013-10-25 22:01:00,52.0,38.0,25.82,NW,315,8.2,8.2,58,0.00,,,0.00,Rainwise IP-100,2013-10-26 04:01:00,
2013-10-25 22:02:00,52.0,38.0,25.82,NNW,337,4.7,8.0,58,0.00,,,0.00,Rainwise IP-100,2013-10-26 04:02:00,
2013-10-25 22:07:00,52.0,38.0,25.82,WNW,292,5.6,6.0,59,0.00,,,0.00,Rainwise IP-100,2013-10-26 04:07:00,
2013-10-25 22:12:00,51.8,38.0,25.82,NW,315,1.9,7.0,60,0.00,,,0.00,Rainwise IP-100,2013-10-26 04:12:00,
2013-10-25 22:17:00,51.4,38.0,25.82,WNW,292,1.6,7.0,61,0.00,,,0.00,Rainwise IP-100,2013-10-26 04:17:00,
2013-10-25 22:22:00,51.0,38.0,25.82,NW,315,3.5,5.0,61,0.00,,,0.00,Rainwise IP-100,2013-10-26 04:22:00,
2013-10-25 22:27:00,50.7,38.0,25.82,WNW,292,3.0,6.0,62,0.00,,,0.00,Rainwise IP-100,2013-10-26 04:27:00,
2013-10-25 22:32:00,50.4,38.0,25.82,NW,315,3.7,6.0,63,0.00,,,0.00,Rainwise IP-100,2013-10-26 04:32:00,
2013-10-25 22:37:00,50.3,38.0,25.82,WNW,292,5.1,8.0,64,0.00,,,0.00,Rainwise IP-100,2013-10-26 04:37:00,
2013-10-25 22:42:00,50.8,38.0,25.82,NW,315,7.0,9.0,63,0.00,,,0.00,Rainwise IP-100,2013-10-26 04:42:00,
2013-10-25 22:47:00,51.4,39.0,25.82,NW,315,8.6,10.0,62,0.00,,,0.00,Rainwise IP-100,2013-10-26 04:47:00,
2013-10-25 22:52:00,51.9,38.0,25.82,NW,315,10.3,12.0,60,0.00,,,0.00,Rainwise IP-100,2013-10-26 04:52:00,
2013-10-25 22:57:00,52.1,38.0,25.82,NW,315,6.5,10.0,60,0.00,,,0.00,Rainwise IP-100,2013-10-26 04:57:00,
2013-10-25 23:02:00,51.9,38.0,25.82,NNW,337,8.2,10.0,60,0.00,,,0.00,Rainwise IP-100,2013-10-26 05:02:00,
2013-10-25 23:07:00,51.8,38.0,25.82,NW,315,10.3,11.0,60,0.00,,,0.00,Rainwise IP-100,2013-10-26 05:07:00,
2013-10-25 23:12:00,51.6,38.0,25.82,WNW,292,7.0,12.0,60,0.00,,,0.00,Rainwise IP-100,2013-10-26 05:12:00,
2013-10-25 23:17:00,51.5,38.0,25.82,WNW,292,7.9,11.0,60,0.00,,,0.00,Rainwise IP-100,2013-10-26 05:17:00,
2013-10-25 23:22:00,51.4,38.0,25.82,NNW,337,6.3,11.0,60,0.00,,,0.00,Rainwise IP-100,2013-10-26 05:22:00,
2013-10-25 23:27:00,51.1,38.0,25.82,WNW,292,6.1,11.0,61,0.00,,,0.00,Rainwise IP-100,2013-10-26 05:27:00,
2013-10-25 23:32:00,50.9,38.0,25.82,WNW,292,6.3,13.0,61,0.00,,,0.00,Rainwise IP-100,2013-10-26 05:32:00,
2013-10-25 23:37:00,50.8,38.0,25.82,NNW,337,9.1,12.0,62,0.00,,,0.00,Rainwise IP-100,2013-10-26 05:37:00,
2013-10-25 23:42:00,50.7,38.0,25.82,NW,315,8.2,12.0,62,0.00,,,0.00,Rainwise IP-100,2013-10-26 05:42:00,
2013-10-25 23:47:00,50.9,39.0,25.82,NW,315,6.5,13.0,62,0.00,,,0.00,Rainwise IP-100,2013-10-26 05:47:00,
2013-10-25 23:52:00,51.2,39.0,25.82,NNW,337,7.9,12.0,62,0.00,,,0.00,Rainwise IP-100,2013-10-26 05:52:00,
2013-10-25 23:57:00,51.2,39.0,25.82,NW,315,8.4,13.0,62,0.00,,,0.00,Rainwise IP-100,2013-10-26 05:57:00,